Location: Ravensburg
(47.7866°N, 9.6124°E)
Time: 07:48:05
(UTC+02:00)

METEOR M2 - Pass Details

Date: 17 March 2026
Orbit: 817 x 824 km, 98.5° (Epoch: 15 April)

Event Time Altitude Azimuth Distance (km) Brightness Sun altitude
Rises 04:57:52 0° 13° (NNE) 3,373 ? -16.3°
Reaches altitude 10° 05:00:14 10° 13° (NNE) 2,436 ? -15.9°
Maximum altitude 05:05:38 84° 286° (WNW) 836 ? -15.0°
Drops below altitude 10° 05:11:00 10° 199° (SSW) 2,417 ? -14.2°
Sets 05:13:20 0° 199° (SSW) 3,345 ? -13.8°
